Regional Weather Roundup
Issued by NWS

Home | Current Version | Previous Version | Graphics & Text | Print | Product List | Glossary On
Versions: 1 2 3 4 5 6 7 8 9 10 11 12 13 14 15 16 17 18 19 20 21 22 23 24 25 26 27
000
ASUS45 KCYS 201810
RWRWY

WYOMING REGIONAL WEATHER ROUNDUP
NATIONAL WEATHER SERVICE CHEYENNE WY
1200 PM MDT FRI APR 20 2018

NOTE:  "FAIR" INDICATES FEW OR NO CLOUDS BELOW 12,000 FEET
WITH NO SIGNIFICANT WEATHER AND/OR OBSTRUCTIONS TO VISIBILITY.

WYZ001-201900-
YELLOWSTONE NATIONAL PARK

CITY           SKY/WX    TMP DP  RH WIND       PRES   REMARKS
LK YELLOWSTONE   N/A     46  16  30 VRB6      30.12S
6HR MIN TEMP:  30; 6HR MAX TEMP:  47;

W YELLOWSTONE  NOT AVBL

$$
WYZ002>013-054>058-071-098>099-201900-
NORTHERN WYOMING

CITY           SKY/WX    TMP DP  RH WIND       PRES   REMARKS
JACKSON        FAIR      53  21  28 N17       30.01S
CODY           FAIR      56  29  35 N24G33    30.05F
GREYBULL       FAIR      59  36  42 N10       29.97F
6HR MIN TEMP:  44; 6HR MAX TEMP:  59;

WORLAND        FAIR      56  36  47 NE9       29.99S
6HR MIN TEMP:  41; 6HR MAX TEMP:  56;

SHERIDAN       FAIR      56  34  43 VRB6      30.08S
6HR MIN TEMP:  40; 6HR MAX TEMP:  57;

BUFFALO        FAIR      52  33  48 N14G22    30.07F
6HR MIN TEMP:  39; 6HR MAX TEMP:  52;

GILLETTE       PTSUNNY   48  30  49 SE13      30.09R
6HR MIN TEMP:  40; 6HR MAX TEMP:  48;

HULETT         CLOUDY    46  32  57 NE3       30.10R
NEWCASTLE      FAIR      52  28  40 SE14G21   30.09F

$$
WYZ014>020-022>026-101>103-201900-
CENTRAL WYOMING

CITY           SKY/WX    TMP DP  RH WIND       PRES   REMARKS
BIG PINEY      FAIR      54  24  31 VRB3      29.96R
6HR MIN TEMP:  37; 6HR MAX TEMP:  56; 6HR PCP:  0.01;

PINEDALE       FAIR      54  19  26 E15G23    29.97R
DUBOIS         FAIR      52  19  28 E10       30.00F
LANDER         PTSUNNY   54  26  34 N13G20    29.98S
6HR MIN TEMP:  39; 6HR MAX TEMP:  54;

RIVERTON       FAIR      54  30  40 NE20G30   29.99S
6HR MIN TEMP:  38; 6HR MAX TEMP:  54;

CASPER         CLOUDY    41  28  60 NE15      30.03R
6HR MIN TEMP:  33; 6HR MAX TEMP:  41;

DOUGLAS        CLOUDY    44  30  57 SE16      30.04R
6HR MIN TEMP:  36; 6HR MAX TEMP:  45;


$$
WYZ021-027>030-104>119-201900-
SOUTHERN WYOMING

CITY           SKY/WX    TMP DP  RH WIND       PRES   REMARKS
EVANSTON       CLOUDY    38  32  79 E15G23    30.03R WCI  29
6HR MIN TEMP:  37; 6HR MAX TEMP:  43;

KEMMERER       CLOUDY    37  32  81 S14       30.01S WCI  29
FORT BRIDGER   SNOW      34  34 100 S14       30.04F VSB 1/2 WCI  24
ROCK SPRINGS   CLOUDY    44  22  41 NE18G28   29.97F
6HR MIN TEMP:  38; 6HR MAX TEMP:  44; 6HR PCP: TRACE;

DIXON          CLOUDY    42  36  81 SW13G21   29.92S
RAWLINS        CLOUDY    43  27  53 NE17      29.94F
6HR MIN TEMP:  36; 6HR MAX TEMP:  44; 6HR PCP: TRACE;

SARATOGA       FAIR      46  27  46 N14G20    29.92S
LARAMIE        PTSUNNY   43  27  53 SE9       29.93S
6HR MIN TEMP:  31; 6HR MAX TEMP:  44;

CHEYENNE       FAIR      50  28  42 SE24G31   29.95F
6HR MIN TEMP:  30; 6HR MAX TEMP:  50;

TORRINGTON     PTSUNNY   49  32  52 SE25G36   30.03S
6HR MIN TEMP:  38; 6HR MAX TEMP:  49;

PINE BLUFFS    FAIR      43  32  65 SE32G38   30.01F

$$




USA.gov is the U.S. government's official web portal to all federal, state and local government web resources and services.